CHUBUSAT-3

Last updated on Fri Feb 16 2018 09:50:02 GMT+0000 (Coordinated Universal Time)

1 41339U 16012C 18047.16138534 .00000338 00000-0 19646-4 0 9995 2 41339 31.0109 1.3152 0013657 321.0778 38.8880 15.00110955109639
UTC large
Height (km)
Speed (km/s)
/
Latitude / Longitude
Inclination (degrees)
Orbital Period (minutes)
Azimuth
Elevation
Range (km)
Doppler Factor

Next 0 passes for location: London (51.5072 / 0.1276)

Sorry there are no passes over London.